| time (UTC) | temp F | wind direction | speed MPH | gust MPH | rain 1hr in | rain 24hr in | rain mn in | humidity % | barometer mb |
| 20260504185026 | 80 | 323 | 2.0 | 10.0 | 0.00 | 0.00 | 0.00 | 51 | 1015.4 |
| 20260504184526 | 79 | 268 | 2.0 | 10.0 | 0.00 | 0.00 | 0.00 | 52 | 1015.4 |
| 20260504184027 | 79 | 3 | 3.0 | 10.0 | 0.00 | 0.00 | 0.00 | 50 | 1015.8 |
| 20260504183523 | 79 | 128 | 4.0 | 13.0 | 0.00 | 0.00 | 0.00 | 51 | 1015.5 |
| 20260504183023 | 78 | 302 | 3.0 | 13.0 | 0.00 | 0.00 | 0.00 | 51 | 1016.0 |
| 20260504182523 | 79 | 213 | 2.0 | 11.0 | 0.00 | 0.00 | 0.00 | 51 | 1015.7 |
| 20260504182023 | 79 | 20 | 3.0 | 11.0 | 0.00 | 0.00 | 0.00 | 53 | 1015.7 |
| 20260504181523 | 79 | 306 | 3.0 | 11.0 | 0.00 | 0.00 | 0.00 | 49 | 1015.8 |
| 20260504181024 | 79 | 49 | 3.0 | 8.0 | 0.00 | 0.00 | 0.00 | 53 | 1016.2 |
| 20260504180523 | 80 | 82 | 3.0 | 8.0 | 0.00 | 0.00 | 0.00 | 53 | 1015.9 |
| 20260504180024 | 79 | 15 | 2.0 | 6.0 | 0.00 | 0.00 | 0.00 | 53 | 1015.8 |
| 20260504175747 | 79 | 307 | 2.0 | 7.0 | 0.00 | 0.00 | 0.00 | 52 | 1016.1 |
| 20260504175021 | 79 | 1 | 3.0 | 9.0 | 0.00 | 0.00 | 0.00 | 53 | 1016.1 |
| 20260504174521 | 79 | 304 | 3.0 | 9.0 | 0.00 | 0.00 | 0.00 | 52 | 1016.3 |
| 20260504174021 | 78 | 328 | 2.0 | 7.0 | 0.00 | 0.00 | 0.00 | 54 | 1016.0 |
| 20260504173521 | 77 | 265 | 2.0 | 7.0 | 0.00 | 0.00 | 0.00 | 53 | 1016.3 |
| 20260504173021 | 76 | 320 | 2.0 | 6.0 | 0.00 | 0.00 | 0.00 | 55 | 1016.5 |
| 20260504172521 | 76 | 264 | 2.0 | 8.0 | 0.00 | 0.00 | 0.00 | 57 | 1016.9 |
| 20260504172021 | 76 | 315 | 2.0 | 8.0 | 0.00 | 0.00 | 0.00 | 55 | 1017.0 |
| 20260504171522 | 77 | 2 | 2.0 | 9.0 | 0.00 | 0.00 | 0.00 | 55 | 1017.0 |
| 20260504171018 | 78 | 68 | 4.0 | 11.0 | 0.00 | 0.00 | 0.00 | 55 | 1016.9 |
| 20260504170529 | 78 | 333 | 4.0 | 11.0 | 0.00 | 0.00 | 0.00 | 53 | 1016.8 |
| 20260504160241 | 76 | 355 | 3.0 | 10.0 | 0.00 | 0.00 | 0.00 | 55 | 1017.2 |
| 20260504150505 | 74 | 293 | 3.0 | 9.0 | 0.00 | 0.00 | 0.00 | 59 | 1017.4 |
| 20260504150234 | 74 | 96 | 2.0 | 9.0 | 0.00 | 0.00 | 0.00 | 60 | 1017.2 |
| 20260504141000 | 67 | 347 | 2.0 | 6.0 | 0.00 | 0.00 | 0.00 | 73 | 1017.3 |
| 20260504140500 | 65 | 305 | 1.0 | 5.0 | 0.00 | 0.00 | 0.00 | 79 | 1017.3 |
| 20260504130454 | 55 | 0 | 0.0 | 5.0 | 0.00 | 0.00 | 0.00 | 93 | 1017.3 |
| 20260504110440 | 50 | 0 | 0.0 | 0.0 | 0.00 | 0.00 | 0.00 | 97 | 1018.4 |
| 20260504100414 | 51 | 0 | 0.0 | 1.0 | 0.00 | 0.00 | 0.00 | 97 | 1018.4 |
| 20260504081858 | 53 | 0 | 0.0 | 0.0 | 0.00 | 0.00 | 0.00 | 96 | 1018.4 |
| 20260504081400 | 53 | 0 | 0.0 | 0.0 | 0.00 | 0.00 | 0.00 | 96 | 1018.4 |
| 20260504081114 | 52 | 0 | 0.0 | 0.0 | 0.00 | 0.00 | 0.00 | 96 | 1018.4 |
| 20260504080400 | 53 | 0 | 0.0 | 1.0 | 0.00 | 0.00 | 0.00 | 96 | 1018.4 |
| 20260504080122 | 53 | 0 | 0.0 | 1.0 | 0.00 | 0.00 | 0.00 | 96 | 1018.3 |
| 20260504070345 | 54 | 0 | 0.0 | 2.0 | 0.00 | 0.00 | 0.00 | 96 | 1018.8 |
| 20260504050334 | 56 | 0 | 0.0 | 0.0 | 0.00 | 0.00 | 0.00 | 95 | 1019.3 |
| 20260504045830 | 56 | 0 | 0.0 | 0.0 | 0.00 | 0.00 | 0.00 | 95 | 1019.3 |
| 20260504045321 | 56 | 0 | 0.0 | 0.0 | 0.00 | 0.00 | 0.00 | 95 | 1019.3 |
| 20260504045038 | 56 | 0 | 0.0 | 0.0 | 0.00 | 0.00 | 0.00 | 95 | 1019.4 |
| 20260504044316 | 56 | 0 | 0.0 | 0.0 | 0.00 | 0.00 | 0.00 | 95 | 1019.4 |
| 20260504044037 | 56 | 0 | 0.0 | 2.0 | 0.00 | 0.00 | 0.00 | 95 | 1019.4 |
| 20260504043537 | 56 | 0 | 0.0 | 2.0 | 0.00 | 0.00 | 0.00 | 95 | 1019.4 |
| 20260504042817 | 56 | 18 | 0.0 | 1.0 | 0.00 | 0.00 | 0.00 | 95 | 1019.3 |
| 20260504042541 | 56 | 0 | 0.0 | 1.0 | 0.00 | 0.00 | 0.00 | 95 | 1019.3 |
| 20260504041816 | 56 | 0 | 0.0 | 0.0 | 0.00 | 0.00 | 0.00 | 95 | 1019.4 |
| 20260504041317 | 56 | 0 | 0.0 | 0.0 | 0.00 | 0.00 | 0.00 | 94 | 1019.3 |
| 20260504040817 | 56 | 0 | 0.0 | 0.0 | 0.00 | 0.00 | 0.00 | 94 | 1019.3 |
| 20260504040535 | 56 | 0 | 0.0 | 0.0 | 0.00 | 0.00 | 0.00 | 94 | 1019.3 |
| 20260504035817 | 56 | 0 | 0.0 | 0.0 | 0.00 | 0.00 | 0.00 | 94 | 1019.3 |
| 20260504035317 | 57 | 0 | 0.0 | 2.0 | 0.00 | 0.00 | 0.00 | 94 | 1019.3 |
| 20260504034817 | 57 | 0 | 0.0 | 2.0 | 0.00 | 0.00 | 0.00 | 94 | 1019.3 |
| 20260504034311 | 57 | 0 | 0.0 | 1.0 | 0.00 | 0.00 | 0.00 | 94 | 1019.3 |
| 20260504033811 | 57 | 0 | 0.0 | 1.0 | 0.00 | 0.00 | 0.00 | 93 | 1019.4 |
| 20260504033534 | 57 | 0 | 0.0 | 2.0 | 0.00 | 0.00 | 0.00 | 93 | 1019.4 |
| 20260504032811 | 57 | 0 | 0.0 | 2.0 | 0.00 | 0.00 | 0.00 | 93 | 1019.4 |
| 20260504032311 | 58 | 0 | 0.0 | 1.0 | 0.00 | 0.00 | 0.00 | 93 | 1019.4 |
| 20260504031811 | 58 | 0 | 0.0 | 2.0 | 0.00 | 0.00 | 0.00 | 92 | 1019.5 |
| 20260504031312 | 58 | 0 | 0.0 | 2.0 | 0.00 | 0.00 | 0.00 | 92 | 1019.4 |
| 20260504030811 | 58 | 0 | 0.0 | 2.0 | 0.00 | 0.00 | 0.00 | 92 | 1019.5 |
| 20260504030312 | 58 | 0 | 0.0 | 2.0 | 0.00 | 0.00 | 0.00 | 92 | 1019.5 |
| 20260504025812 | 58 | 26 | 0.0 | 1.0 | 0.00 | 0.00 | 0.00 | 92 | 1019.6 |
| 20260504025308 | 58 | 0 | 0.0 | 1.0 | 0.00 | 0.00 | 0.00 | 91 | 1019.6 |
| 20260504024808 | 58 | 0 | 0.0 | 1.0 | 0.00 | 0.00 | 0.00 | 91 | 1019.7 |
| 20260504024308 | 59 | 0 | 0.0 | 1.0 | 0.00 | 0.00 | 0.00 | 91 | 1019.7 |
| 20260504023808 | 59 | 0 | 0.0 | 0.0 | 0.00 | 0.00 | 0.00 | 90 | 1019.6 |
| 20260504023309 | 59 | 0 | 0.0 | 0.0 | 0.00 | 0.00 | 0.00 | 90 | 1019.7 |
| 20260504022808 | 59 | 0 | 0.0 | 0.0 | 0.00 | 0.00 | 0.00 | 90 | 1019.7 |
| 20260504022308 | 60 | 0 | 0.0 | 1.0 | 0.00 | 0.00 | 0.00 | 89 | 1019.6 |
| 20260504021809 | 60 | 0 | 0.0 | 1.0 | 0.00 | 0.00 | 0.00 | 89 | 1019.6 |
| 20260504021529 | 60 | 0 | 0.0 | 1.0 | 0.00 | 0.00 | 0.00 | 88 | 1019.6 |
| 20260504020808 | 60 | 0 | 0.0 | 1.0 | 0.00 | 0.00 | 0.00 | 88 | 1019.5 |
| 20260504020309 | 60 | 0 | 0.0 | 1.0 | 0.00 | 0.00 | 0.00 | 88 | 1019.4 |
| 20260504020252 | 61 | 0 | 0.0 | 0.0 | 0.00 | 0.00 | 0.00 | 87 | 1019.3 |
| 20260504015309 | 61 | 0 | 0.0 | 0.0 | 0.00 | 0.00 | 0.00 | 86 | 1019.2 |
| 20260504014809 | 61 | 0 | 0.0 | 0.0 | 0.00 | 0.00 | 0.00 | 86 | 1019.1 |
| 20260504014308 | 62 | 0 | 0.0 | 0.0 | 0.00 | 0.00 | 0.00 | 85 | 1019.1 |
| 20260504013809 | 62 | 0 | 0.0 | 0.0 | 0.00 | 0.00 | 0.00 | 85 | 1019.0 |
| 20260504013308 | 62 | 0 | 0.0 | 0.0 | 0.00 | 0.00 | 0.00 | 84 | 1019.0 |
| 20260504012808 | 63 | 0 | 0.0 | 0.0 | 0.00 | 0.00 | 0.00 | 84 | 1018.9 |
| 20260504012308 | 63 | 0 | 0.0 | 0.0 | 0.00 | 0.00 | 0.00 | 83 | 1018.9 |
| 20260504011308 | 64 | 0 | 0.0 | 0.0 | 0.00 | 0.00 | 0.00 | 82 | 1018.8 |
| 20260504010808 | 64 | 0 | 0.0 | 0.0 | 0.00 | 0.00 | 0.00 | 81 | 1018.8 |
| 20260504010538 | 65 | 0 | 0.0 | 0.0 | 0.00 | 0.00 | 0.00 | 80 | 1018.6 |
| 20260504005808 | 65 | 0 | 0.0 | 0.0 | 0.00 | 0.00 | 0.00 | 79 | 1018.6 |
| 20260504005307 | 66 | 0 | 0.0 | 0.0 | 0.00 | 0.00 | 0.00 | 79 | 1018.3 |
| 20260504004808 | 67 | 0 | 0.0 | 0.0 | 0.00 | 0.00 | 0.00 | 76 | 1018.3 |
| 20260504004308 | 67 | 0 | 0.0 | 0.0 | 0.00 | 0.00 | 0.00 | 75 | 1018.3 |
| 20260504003808 | 68 | 0 | 0.0 | 0.0 | 0.00 | 0.00 | 0.00 | 72 | 1018.5 |
| 20260504003309 | 68 | 0 | 0.0 | 0.0 | 0.00 | 0.00 | 0.00 | 75 | 1018.4 |
| 20260504002807 | 69 | 0 | 0.0 | 1.0 | 0.00 | 0.00 | 0.00 | 76 | 1018.2 |
| 20260504002307 | 69 | 0 | 0.0 | 1.0 | 0.00 | 0.00 | 0.00 | 72 | 1018.2 |
| 20260504001808 | 70 | 0 | 0.0 | 1.0 | 0.00 | 0.00 | 0.00 | 70 | 1018.3 |
| 20260504001304 | 71 | 0 | 0.0 | 1.0 | 0.00 | 0.00 | 0.00 | 69 | 1018.3 |
| 20260504000804 | 71 | 274 | 0.0 | 1.0 | 0.00 | 0.00 | 0.00 | 66 | 1018.2 |
| 20260504000304 | 72 | 0 | 0.0 | 0.0 | 0.00 | 0.00 | 0.00 | 64 | 1018.3 |
| 20260504000036 | 73 | 0 | 0.0 | 1.0 | 0.00 | 0.00 | 0.00 | 63 | 1018.1 |
| 20260503235304 | 74 | 0 | 0.0 | 2.0 | 0.00 | 0.00 | 0.00 | 63 | 1018.2 |
| 20260503235029 | 74 | 0 | 0.0 | 2.0 | 0.00 | 0.00 | 0.00 | 64 | 1018.3 |
| 20260503234304 | 76 | 0 | 0.0 | 3.0 | 0.00 | 0.00 | 0.00 | 60 | 1018.1 |
| 20260503233805 | 77 | 327 | 0.0 | 3.0 | 0.00 | 0.00 | 0.00 | 57 | 1018.2 |
| 20260503233305 | 78 | 0 | 0.0 | 2.0 | 0.00 | 0.00 | 0.00 | 54 | 1018.0 |
| 20260503232802 | 78 | 321 | 0.0 | 2.0 | 0.00 | 0.00 | 0.00 | 54 | 1017.7 |
| 20260503232305 | 78 | 0 | 0.0 | 1.0 | 0.00 | 0.00 | 0.00 | 55 | 1017.7 |
| 20260503231803 | 79 | 229 | 0.0 | 3.0 | 0.00 | 0.00 | 0.00 | 52 | 1017.5 |
| 20260503231303 | 78 | 0 | 1.0 | 4.0 | 0.00 | 0.00 | 0.00 | 48 | 1017.7 |
| 20260503231015 | 78 | 333 | 1.0 | 4.0 | 0.00 | 0.00 | 0.00 | 48 | 1017.9 |
| 20260503230259 | 78 | 322 | 1.0 | 3.0 | 0.00 | 0.00 | 0.00 | 49 | 1017.8 |
| 20260503225801 | 78 | 329 | 1.0 | 3.0 | 0.00 | 0.00 | 0.00 | 49 | 1018.0 |
| 20260503225259 | 78 | 329 | 1.0 | 4.0 | 0.00 | 0.00 | 0.00 | 49 | 1018.0 |
| 20260503224759 | 78 | 338 | 2.0 | 4.0 | 0.00 | 0.00 | 0.00 | 49 | 1017.9 |
| 20260503224259 | 78 | 311 | 2.0 | 5.0 | 0.00 | 0.00 | 0.00 | 49 | 1017.9 |
| 20260503223759 | 77 | 267 | 2.0 | 5.0 | 0.00 | 0.00 | 0.00 | 49 | 1018.1 |
| 20260503223300 | 77 | 304 | 2.0 | 5.0 | 0.00 | 0.00 | 0.00 | 49 | 1018.2 |
| 20260503222800 | 76 | 4 | 2.0 | 4.0 | 0.00 | 0.00 | 0.00 | 52 | 1018.4 |
| 20260503222259 | 77 | 275 | 2.0 | 4.0 | 0.00 | 0.00 | 0.00 | 50 | 1018.5 |
| 20260503222252 | 78 | 318 | 2.0 | 5.0 | 0.00 | 0.00 | 0.00 | 49 | 1018.5 |
| 20260503221259 | 78 | 213 | 2.0 | 6.0 | 0.00 | 0.00 | 0.00 | 48 | 1018.2 |
| 20260503220800 | 78 | 0 | 2.0 | 6.0 | 0.00 | 0.00 | 0.00 | 50 | 1018.2 |
| 20260503220258 | 78 | 286 | 2.0 | 7.0 | 0.00 | 0.00 | 0.00 | 47 | 1018.2 |
| 20260503215759 | 78 | 2 | 2.0 | 7.0 | 0.00 | 0.00 | 0.00 | 49 | 1018.3 |
| 20260503215258 | 78 | 292 | 2.0 | 6.0 | 0.00 | 0.00 | 0.00 | 50 | 1018.5 |
| 20260503214756 | 78 | 347 | 2.0 | 7.0 | 0.00 | 0.00 | 0.00 | 49 | 1018.3 |
| 20260503214254 | 78 | 0 | 2.0 | 7.0 | 0.00 | 0.00 | 0.00 | 49 | 1018.4 |
| 20260503213758 | 77 | 311 | 2.0 | 6.0 | 0.00 | 0.00 | 0.00 | 48 | 1018.7 |
| 20260503213255 | 78 | 311 | 3.0 | 7.0 | 0.00 | 0.00 | 0.00 | 49 | 1019.0 |
| 20260503213025 | 78 | 339 | 3.0 | 7.0 | 0.00 | 0.00 | 0.00 | 48 | 1018.8 |
| 20260503212249 | 78 | 358 | 2.0 | 6.0 | 0.00 | 0.00 | 0.00 | 48 | 1019.0 |
| 20260503211748 | 78 | 21 | 2.0 | 9.0 | 0.00 | 0.00 | 0.00 | 49 | 1018.8 |
| 20260503211249 | 79 | 13 | 3.0 | 9.0 | 0.00 | 0.00 | 0.00 | 48 | 1018.8 |
| 20260503210749 | 79 | 341 | 3.0 | 9.0 | 0.00 | 0.00 | 0.00 | 48 | 1018.8 |
| 20260503210249 | 79 | 280 | 3.0 | 9.0 | 0.00 | 0.00 | 0.00 | 48 | 1018.9 |
| 20260503205749 | 79 | 218 | 3.0 | 7.0 | 0.00 | 0.00 | 0.00 | 48 | 1019.0 |
| 20260503205247 | 78 | 281 | 3.0 | 7.0 | 0.00 | 0.00 | 0.00 | 48 | 1018.9 |
| 20260503204746 | 77 | 0 | 4.0 | 9.0 | 0.00 | 0.00 | 0.00 | 48 | 1019.6 |
| 20260503204244 | 79 | 336 | 3.0 | 10.0 | 0.00 | 0.00 | 0.00 | 50 | 1019.4 |
| 20260503203744 | 78 | 344 | 3.0 | 10.0 | 0.00 | 0.00 | 0.00 | 47 | 1019.3 |
| 20260503203245 | 78 | 322 | 3.0 | 9.0 | 0.00 | 0.00 | 0.00 | 48 | 1019.5 |
| 20260503203002 | 78 | 288 | 3.0 | 9.0 | 0.00 | 0.00 | 0.00 | 48 | 1019.7 |
| 20260503202244 | 78 | 63 | 3.0 | 7.0 | 0.00 | 0.00 | 0.00 | 49 | 1019.6 |
| 20260503201748 | 78 | 346 | 4.0 | 8.0 | 0.00 | 0.00 | 0.00 | 48 | 1019.6 |
| 20260503201259 | 77 | 12 | 4.0 | 9.0 | 0.00 | 0.00 | 0.00 | 50 | 1020.0 |
| 20260503200745 | 78 | 336 | 3.0 | 9.0 | 0.00 | 0.00 | 0.00 | 49 | 1019.8 |
| 20260503200246 | 77 | 123 | 3.0 | 8.0 | 0.00 | 0.00 | 0.00 | 50 | 1020.1 |
| 20260503195746 | 78 | 16 | 3.0 | 8.0 | 0.00 | 0.00 | 0.00 | 49 | 1020.4 |
| 20260503195246 | 78 | 92 | 3.0 | 9.0 | 0.00 | 0.00 | 0.00 | 47 | 1020.0 |
| 20260503194746 | 78 | 307 | 3.0 | 9.0 | 0.00 | 0.00 | 0.00 | 46 | 1020.1 |
| 20260503194246 | 77 | 299 | 4.0 | 11.0 | 0.00 | 0.00 | 0.00 | 47 | 1020.2 |
| 20260503193744 | 77 | 353 | 4.0 | 11.0 | 0.00 | 0.00 | 0.00 | 50 | 1020.6 |
| 20260503193245 | 78 | 24 | 3.0 | 8.0 | 0.00 | 0.00 | 0.00 | 49 | 1020.3 |
| 20260503192746 | 77 | 148 | 3.0 | 10.0 | 0.00 | 0.00 | 0.00 | 47 | 1020.4 |
| 20260503192241 | 78 | 356 | 4.0 | 10.0 | 0.00 | 0.00 | 0.00 | 48 | 1020.7 |
| 20260503191741 | 78 | 292 | 3.0 | 8.0 | 0.00 | 0.00 | 0.00 | 48 | 1020.5 |
| 20260503191241 | 77 | 314 | 4.0 | 9.0 | 0.00 | 0.00 | 0.00 | 52 | 1020.6 |
| 20260503190742 | 77 | 30 | 3.0 | 9.0 | 0.00 | 0.00 | 0.00 | 51 | 1020.9 |
| 20260503190241 | 78 | 358 | 3.0 | 11.0 | 0.00 | 0.00 | 0.00 | 49 | 1021.0 |
| 20260503190006 | 78 | 337 | 3.0 | 11.0 | 0.00 | 0.00 | 0.00 | 49 | 1020.8 |